• In Austria
  • List of Countries
  • For 7 days
  • Water Temperature
  • Satellite Maps
  • Weather Map
  • News
  • Weather Widgets
  • user-avatar
    Login

    Hourly Weather Boa Vista

    Today, 23 January, Tuesday

    Time Temperature Precipitation Wind Pressure Humidity
    00:00 +29°C° 0 mm 4 mps 751 mmHg 58%
    01:00 +29°C° 0 mm 4 mps 751 mmHg 59%
    02:00 +28°C° 0 mm 4 mps 751 mmHg 62%
    03:00 +28°C° 0 mm 4 mps 751 mmHg 63%
    04:00 +28°C° 0 mm 4 mps 751 mmHg 64%
    05:00 +27°C° 0 mm 4 mps 751 mmHg 65%
    06:00 +28°C° 0 mm 4 mps 752 mmHg 63%
    07:00 +28°C° 0 mm 5 mps 752 mmHg 61%
    08:00 +29°C° 0 mm 5 mps 752 mmHg 58%
    09:00 +30°C° 0 mm 5 mps 753 mmHg 52%
    10:00 +33°C° 0 mm 5 mps 753 mmHg 46%
    11:00 +35°C° 0 mm 5 mps 753 mmHg 40%
    12:00 +36°C° 0 mm 4 mps 752 mmHg 37%
    13:00 +37°C° 0 mm 4 mps 751 mmHg 34%
    14:00 +38°C° 0 mm 4 mps 750 mmHg 32%
    15:00 +38°C° 0 mm 3 mps 749 mmHg 33%
    16:00 +37°C° 0 mm 3 mps 748 mmHg 35%
    17:00 +37°C° 0 mm 3 mps 748 mmHg 36%
    18:00 +36°C° 0 mm 3 mps 748 mmHg 39%
    19:00 +35°C° 0 mm 2 mps 749 mmHg 43%
    20:00 +34°C° 0 mm 2 mps 749 mmHg 46%
    21:00 +33°C° 0 mm 3 mps 750 mmHg 48%
    22:00 +32°C° 0 mm 4 mps 751 mmHg 51%
    23:00 +32°C° 0 mm 4 mps 751 mmHg 53%

    Tomorrow, 24 January, Wednesday

    Time Temperature Precipitation Wind Pressure Humidity
    00:00 +30°C° 0 mm 4 mps 751 mmHg 56%
    01:00 +30°C° 0 mm 4 mps 751 mmHg 60%
    02:00 +29°C° 0 mm 5 mps 751 mmHg 63%
    03:00 +29°C° 0 mm 4 mps 751 mmHg 65%
    04:00 +28°C° 0 mm 4 mps 751 mmHg 67%
    05:00 +28°C° 0 mm 4 mps 751 mmHg 69%
    06:00 +28°C° 0 mm 4 mps 752 mmHg 67%
    07:00 +28°C° 0 mm 4 mps 753 mmHg 65%
    08:00 +29°C° 0 mm 4 mps 753 mmHg 63%
    09:00 +30°C° 0 mm 4 mps 753 mmHg 59%
    10:00 +32°C° 0 mm 4 mps 753 mmHg 54%
    11:00 +33°C° 0 mm 4 mps 754 mmHg 50%
    12:00 +34°C° 0 mm 4 mps 753 mmHg 48%
    13:00 +35°C° 0 mm 4 mps 751 mmHg 45%
    14:00 +36°C° 0 mm 4 mps 750 mmHg 43%
    15:00 +36°C° 0 mm 3 mps 750 mmHg 43%
    16:00 +36°C° 0 mm 2 mps 749 mmHg 44%
    17:00 +36°C° 0 mm 2 mps 749 mmHg 44%
    18:00 +34°C° 0 mm 2 mps 749 mmHg 48%
    19:00 +32°C° 0 mm 2 mps 750 mmHg 52%
    20:00 +31°C° 0 mm 2 mps 750 mmHg 56%
    21:00 +30°C° 0.3 mm 3 mps 751 mmHg 61%
    22:00 +30°C° 0.3 mm 3 mps 751 mmHg 66%
    23:00 +29°C° 0.3 mm 3 mps 752 mmHg 71%

    Day after tomorrow, 25 January, Thursday

    Time Temperature Precipitation Wind Pressure Humidity
    00:00 +29°C° 0.3 mm 3 mps 752 mmHg 72%
    01:00 +28°C° 0.3 mm 3 mps 751 mmHg 73%
    02:00 +28°C° 0.3 mm 3 mps 751 mmHg 74%
    03:00 +27°C° 0 mm 3 mps 751 mmHg 75%
    04:00 +27°C° 0 mm 3 mps 751 mmHg 76%
    05:00 +27°C° 0 mm 3 mps 751 mmHg 76%
    06:00 +27°C° 0 mm 4 mps 752 mmHg 73%
    07:00 +28°C° 0 mm 4 mps 752 mmHg 70%
    08:00 +29°C° 0 mm 4 mps 753 mmHg 67%
    09:00 +30°C° 0 mm 4 mps 753 mmHg 60%
    10:00 +33°C° 0 mm 4 mps 753 mmHg 53%
    11:00 +35°C° 0 mm 4 mps 753 mmHg 46%
    12:00 +36°C° 0.3 mm 4 mps 752 mmHg 44%
    13:00 +36°C° 0.3 mm 4 mps 751 mmHg 43%
    14:00 +37°C° 0.3 mm 3 mps 750 mmHg 41%
    15:00 +37°C° 0 mm 3 mps 749 mmHg 41%
    16:00 +37°C° 0 mm 2 mps 749 mmHg 41%
    17:00 +37°C° 0 mm 2 mps 748 mmHg 41%
    18:00 +36°C° 0 mm 2 mps 749 mmHg 45%
    19:00 +34°C° 0 mm 2 mps 749 mmHg 48%
    20:00 +33°C° 0 mm 3 mps 750 mmHg 51%
    21:00 +33°C° 0 mm 3 mps 750 mmHg 54%
    22:00 +32°C° 0 mm 4 mps 751 mmHg 57%
    23:00 +32°C° 0 mm 4 mps 751 mmHg 60%

    26 January, Friday

    Time Temperature Precipitation Wind Pressure Humidity
    00:00 +30°C° 0 mm 4 mps 751 mmHg 62%
    01:00 +29°C° 0 mm 4 mps 751 mmHg 64%
    02:00 +29°C° 0 mm 4 mps 751 mmHg 67%
    03:00 +28°C° 0 mm 4 mps 751 mmHg 68%
    04:00 +28°C° 0 mm 4 mps 751 mmHg 69%
    05:00 +28°C° 0 mm 4 mps 751 mmHg 70%
    06:00 +28°C° 0.1 mm 4 mps 752 mmHg 69%
    07:00 +28°C° 0.1 mm 4 mps 752 mmHg 69%
    08:00 +28°C° 0.1 mm 4 mps 753 mmHg 68%
    09:00 +30°C° 0 mm 4 mps 753 mmHg 61%
    10:00 +32°C° 0 mm 5 mps 753 mmHg 54%
    11:00 +34°C° 0 mm 5 mps 753 mmHg 46%
    12:00 +35°C° 0 mm 5 mps 752 mmHg 43%
    13:00 +36°C° 0 mm 4 mps 751 mmHg 39%
    14:00 +37°C° 0 mm 4 mps 749 mmHg 36%
    15:00 +37°C° 0 mm 4 mps 749 mmHg 36%
    16:00 +37°C° 0 mm 3 mps 748 mmHg 36%
    17:00 +37°C° 0 mm 3 mps 748 mmHg 36%
    18:00 +36°C° 0 mm 3 mps 748 mmHg 40%
    19:00 +34°C° 0 mm 3 mps 749 mmHg 44%
    20:00 +33°C° 0 mm 3 mps 749 mmHg 48%
    21:00 +31°C° 0 mm 3 mps 750 mmHg 51%
    22:00 +32°C° 0 mm 4 mps 750 mmHg 54%
    23:00 +30°C° 0 mm 4 mps 751 mmHg 56%

    27 January, Saturday

    Time Temperature Precipitation Wind Pressure Humidity
    00:00 +30°C° 0 mm 4 mps 751 mmHg 57%
    01:00 +29°C° 0 mm 4 mps 750 mmHg 59%
    02:00 +29°C° 0 mm 4 mps 750 mmHg 60%
    03:00 +28°C° 0 mm 4 mps 750 mmHg 62%
    04:00 +28°C° 0 mm 4 mps 750 mmHg 63%
    05:00 +28°C° 0 mm 4 mps 750 mmHg 65%
    06:00 +28°C° 0 mm 4 mps 751 mmHg 65%
    07:00 +28°C° 0 mm 5 mps 752 mmHg 65%
    08:00 +28°C° 0 mm 5 mps 752 mmHg 65%
    09:00 +30°C° 0 mm 5 mps 752 mmHg 60%
    10:00 +32°C° 0 mm 5 mps 752 mmHg 56%
    11:00 +33°C° 0 mm 4 mps 752 mmHg 52%
    12:00 +34°C° 0 mm 4 mps 751 mmHg 48%
    13:00 +35°C° 0 mm 4 mps 750 mmHg 44%
    14:00 +36°C° 0 mm 4 mps 749 mmHg 40%
    15:00 +36°C° 0 mm 4 mps 749 mmHg 40%
    16:00 +36°C° 0 mm 4 mps 748 mmHg 40%
    17:00 +36°C° 0 mm 4 mps 748 mmHg 40%
    18:00 +35°C° 0 mm 3 mps 748 mmHg 43%
    19:00 +34°C° 0 mm 3 mps 749 mmHg 47%
    20:00 +31°C° 0 mm 3 mps 749 mmHg 50%
    21:00 +32°C° 0 mm 4 mps 750 mmHg 52%
    22:00 +32°C° 0 mm 5 mps 750 mmHg 53%
    23:00 +30°C° 0 mm 5 mps 751 mmHg 55%

    28 January, Sunday

    Time Temperature Precipitation Wind Pressure Humidity
    00:00 +30°C° 0 mm 5 mps 750 mmHg 57%
    01:00 +29°C° 0 mm 5 mps 750 mmHg 59%
    02:00 +28°C° 0 mm 5 mps 750 mmHg 61%
    03:00 +28°C° 0 mm 4 mps 750 mmHg 62%
    04:00 +28°C° 0 mm 4 mps 750 mmHg 63%
    05:00 +27°C° 0 mm 4 mps 750 mmHg 64%
    06:00 +28°C° 0 mm 4 mps 751 mmHg 63%
    07:00 +28°C° 0 mm 5 mps 752 mmHg 62%
    08:00 +29°C° 0 mm 5 mps 752 mmHg 61%
    09:00 +30°C° 0 mm 5 mps 752 mmHg 55%
    10:00 +33°C° 0 mm 5 mps 752 mmHg 49%
    11:00 +35°C° 0 mm 5 mps 752 mmHg 43%
    12:00 +36°C° 0 mm 5 mps 751 mmHg 39%
    13:00 +37°C° 0 mm 5 mps 750 mmHg 35%
    14:00 +39°C° 0 mm 5 mps 749 mmHg 31%
    15:00 +38°C° 0 mm 4 mps 748 mmHg 31%
    16:00 +38°C° 0 mm 4 mps 748 mmHg 31%
    17:00 +38°C° 0 mm 4 mps 747 mmHg 31%
    18:00 +36°C° 0 mm 4 mps 748 mmHg 34%
    19:00 +35°C° 0 mm 4 mps 748 mmHg 38%
    20:00 +33°C° 0 mm 3 mps 749 mmHg 42%
    21:00 +33°C° 0 mm 4 mps 749 mmHg 45%
    22:00 +32°C° 0 mm 4 mps 750 mmHg 48%
    23:00 +32°C° 0 mm 5 mps 750 mmHg 50%
    Show more